Flag for U.S.A. Weather past 2 weeks in Grand Prairie, Texas, U.S.A.

Now
88 °F

Sunny.


Feels Like: 96 °F
Forecast: 76 / 96 °F
Wind: No wind

Location: Grand Prairie Municipal Airport

Current Time: Jul 22, 2014 at 3:34:25 PM

Latest Report: Jul 22, 2014 at 10:50 AM


Visibility: 7 mi

Pressure: 30.08 "Hg

Humidity: 62%

Dew point: 73 °F

Location of Grand PrairieLocation

Historic Weather in Grand Prairie — Graph

°F

Grand Prairie temperature yesterday

Maximum temperature yesterday: 97 °F (at 3:50 PM)
Minimum temperature yesterday: 74 °F (at 5:55 AM)
Average temperature yesterday: 82 °F

Past Weeks' High & Low Weather Summary

 TemperatureHumidityPressure
High100 °F (Jul 14, 2:50 PM)100% (Jul 17, 2:50 PM)30.19 "Hg (Jul 17, 2:50 PM)
Low36 °F (Jul 18, 11:50 AM)22% (Jul 15, 6:50 PM)29.88 "Hg (Jul 16, 6:50 PM)
Average80 °F62%30.02 "Hg
* Reported Jul 7 10:50 AM — Jul 22 10:50 AM, Grand Prairie, Weather by CustomWeather, © 2014

Note: Actual official high and low records may vary slightly from our data, if they occured in-between our weather recording intervals... More about our weather records

Advertising

Grand Prairie weather history for previous 24 hours

 ConditionsComfort  
Time TempWeatherWind HumidityBarometerVisibility
10:50 AM
Jul 22
88 °FSunny.No wind62%30.08 "Hg7 mi
9:50 AM82 °FSunny.No wind74%30.09 "Hg7 mi
8:50 AM79 °FSunny.7 mph79%30.10 "Hg7 mi
7:50 AM79 °FSunny.5 mph79%30.08 "Hg7 mi
6:35 AM77 °FClear.5 mph80%30.06 "Hg7 mi
5:15 AM78 °FClear.5 mph80%30.04 "Hg7 mi
4:55 AM78 °FClear.5 mph79%30.03 "Hg7 mi
4:35 AM78 °FClear.6 mph79%30.03 "Hg7 mi
4:15 AM78 °FClear.5 mph78%30.03 "Hg7 mi
3:55 AM79 °FClear.5 mph77%30.02 "Hg10 mi
3:35 AM79 °FClear.7 mph77%30.03 "Hg10 mi
3:15 AM79 °FClear.9 mph76%30.03 "Hg10 mi
2:55 AM80 °FClear.6 mph75%30.03 "Hg10 mi
2:35 AM80 °FClear.7 mph75%30.04 "Hg10 mi
2:15 AM80 °FClear.3 mph73%30.04 "Hg10 mi
1:55 AM80 °FClear.3 mph71%30.05 "Hg10 mi
1:35 AM81 °FClear.3 mph68%30.05 "Hg10 mi
1:15 AM81 °FClear.3 mph68%30.05 "Hg10 mi
12:55 AM82 °FClear.No wind67%30.05 "Hg10 mi
12:35 AM82 °FClear.No wind64%30.05 "Hg10 mi
12:15 AM82 °FClear.No wind64%30.04 "Hg10 mi
11:55 PM
Jul 21
83 °FClear.3 mph63%30.04 "Hg10 mi
11:35 PM83 °FClear.3 mph61%30.03 "Hg10 mi
10:55 PM85 °FClear.3 mph58%30.02 "Hg10 mi
10:35 PM85 °FClear.5 mph58%30.01 "Hg10 mi
9:55 PM87 °FClear.5 mph56%30.00 "Hg10 mi
9:35 PM87 °FClear.6 mph54%29.99 "Hg10 mi
9:15 PM88 °FSunny.6 mph52%29.98 "Hg10 mi
8:55 PM89 °FSunny.7 mph50%29.98 "Hg10 mi
8:15 PM91 °FSunny.10 mph47%29.98 "Hg10 mi
7:50 PM91 °FSunny.9 mph44%29.98 "Hg10 mi
6:50 PM93 °FSunny.12 mph44%29.97 "Hg10 mi
5:50 PM97 °FSunny.8 mph34%29.98 "Hg10 mi
4:50 PM97 °FSunny.9 mph37%29.98 "Hg10 mi
3:50 PM97 °FSunny.5 mph37%30.00 "Hg10 mi
Weather by CustomWeather, © 2014

See weather overviewHow to use our weather pages